Location: Brno
(49.2000°N, 16.6330°E)
Time: 09:04:09
(UTC+02:00)

Cosmos 1603 - Visible Passes

Search period start: 21 October 2014 00:00
Search period end: 30 October 2014 23:00
Orbit: 830 x 861 km, 71.0° (Epoch: 19 October)

Date Brightness Start Highest point End Pass type
(mag) Time Alt. Az. Time Alt. Az. Time Alt. Az.
21 Oct 6.5 03:53:45 10° N 03:55:08 11° NNE 03:56:30 10° NE visible
21 Oct 5.4 05:36:09 10° NNW 05:41:16 32° NE 05:46:19 10° ESE visible
22 Oct 6.5 03:40:02 10° N 03:41:16 11° NNE 03:42:30 10° NE visible
22 Oct 5.4 05:22:21 10° NNW 05:27:26 31° NE 05:32:27 10° ESE visible
23 Oct 6.5 03:26:20 10° N 03:27:25 11° NNE 03:28:29 10° NNE visible
23 Oct 5.4 05:08:33 10° NNW 05:13:36 31° NE 05:18:35 10° ESE visible
23 Oct 3.8 06:52:29 10° NW 06:58:07 59° WSW 07:03:40 10° S visible
24 Oct 6.6 03:12:39 10° NNE 03:13:33 10° NNE 03:14:27 10° NNE visible
24 Oct 5.5 04:54:45 10° NNW 04:59:46 30° NE 05:04:43 10° ESE visible
24 Oct 3.8 06:38:40 10° NW 06:44:18 61° WSW 06:49:52 10° S visible
25 Oct 6.6 02:59:00 10° NNE 02:59:41 10° NNE 03:00:22 10° NNE visible
25 Oct 5.5 04:40:56 10° NNW 04:45:55 29° NE 04:50:51 10° ESE visible
25 Oct 3.8 06:24:50 10° NNW 06:30:30 62° WSW 06:36:04 10° SSE visible
26 Oct 6.6 02:45:28 10° NNE 02:45:49 10° NNE 02:46:11 10° NNE visible
26 Oct 5.5 03:27:08 10° NNW 03:32:05 29° NE 03:36:59 10° ESE visible
26 Oct 3.7 05:11:01 10° NNW 05:16:41 64° WSW 05:22:16 10° SSE visible
26 Oct 5.3 18:24:34 10° SSE 18:26:30 18° SE 18:26:30 18° SE visible
26 Oct 5.6 20:06:50 10° SW 20:08:31 20° SW 20:08:31 20° SW visible
27 Oct 5.5 03:13:48 12° N 03:18:15 28° NE 03:23:06 10° ESE visible
27 Oct 3.7 04:57:11 10° NNW 05:02:52 66° WSW 05:08:27 10° SSE visible
27 Oct 4.8 18:10:50 10° SSE 18:14:37 22° ESE 18:14:37 22° ESE visible
27 Oct 4.7 19:53:00 10° SW 19:56:37 40° SW 19:56:37 40° SW visible
28 Oct 5.5 03:01:15 18° N 03:04:24 28° NE 03:09:13 10° ESE visible
28 Oct 3.6 04:43:22 10° NNW 04:49:03 67° WSW 04:54:39 10° SSE visible
28 Oct 4.8 17:57:05 10° SSE 18:01:20 22° E 18:02:34 20° E visible
28 Oct 3.9 19:39:10 10° SW 19:44:33 69° W 19:44:33 69° W visible
28 Oct 6.5 21:26:08 10° W 21:26:33 11° WNW 21:26:33 11° WNW visible
29 Oct 5.5 02:48:56 24° NNE 02:50:34 27° NE 02:55:21 10° ESE visible
29 Oct 3.6 04:30:55 18° NW 04:35:14 69° WSW 04:40:50 10° SSE visible
29 Oct 4.9 17:43:21 10° SSE 17:47:32 21° E 17:50:18 15° ENE visible
29 Oct 3.8 19:25:20 10° SW 19:31:04 73° WNW 19:32:17 55° N visible
29 Oct 6.2 21:12:14 10° W 21:14:15 16° WNW 21:14:15 16° WNW visible
30 Oct 5.5 02:36:49 27° NE 02:36:49 27° NE 02:41:28 10° E visible
30 Oct 3.6 04:18:49 33° NW 04:21:25 71° WSW 04:27:02 10° SSE visible
30 Oct 5.4 06:02:32 10° WNW 06:04:28 12° W 06:06:23 10° WSW visible
30 Oct 4.9 17:29:38 10° SE 17:33:44 21° E 17:37:49 10° NE visible
30 Oct 3.8 19:11:30 10° SW 19:17:15 75° WNW 19:19:46 35° NNE visible
30 Oct 6.0 20:58:20 10° W 21:01:44 19° NW 21:01:44 19° NW visible
